Weather in Prigorodnoye

Russia / Kaliningrad Oblast     54°38′11″N   22°36′20″E
temp.,
°C
wind,
m/s
gust,
m/s
humid.,
%
clouds,
%
prec.,
mm/h
press.,
hPa
HPBL,
m
9 may, sun
sun923:00+2w22943 0.0 101832
02:00+1wsw22955 0.0 102026
05:00+1sw339599 0.0 102051
08:00+6s347579 0.0 1021310
11:00+11s565465 0.0 10201291
14:00+13s685196 0.0 10191870
17:00+11sse41067100 0.0 1018417
20:00+10sse5137438 0.0 1018422
10 may, mon
mon1023:00+12s6156873 0.0 1018481
02:00+10s5157494 0.0 1018367
05:00+9sse513815 0.0 1018315
08:00+13s613724 0.0 1019449
11:00+18s711594 0.0 1019854
14:00+21sse710555 0.0 10181217
17:00+20sse610615 0.0 10171237
20:00+15se51176100 0.0 1018279
11 may, tue
tue1123:00+14se51476100 0.0 1019448
02:00+12se61478100 0.0 1019406
05:00+11se61579100 0.0 1019407
08:00+14se6157178 0.0 1019611
11:00+19se8135995 0.0 1019941
14:00+20se8115649 0.0 10181183
17:00+19se812594 0.0 10171024
20:00+14ese512713 0.0 1017332
12 may, wed
wed1223:00+11ese514750 0.0 1018373
02:00+11ese414830 0.0 1017397
05:00+10ese512920 0.0 1017285
08:00+15ese712790 0.0 1016586
11:00+19ese811574 0.0 10161243
14:00+19ese8104875 0.0 10151427
17:00+19ese695917 0.0 10131453
20:00+13ese4106697 0.0 1013374
13 may, thu
thu1323:00+12ese497087 0.0 1012376
02:00+8ese389226 0.0 1012174
05:00+7ese359335 0.0 101189
08:00+12e4577100 0.0 1010386
11:00+15ese456998 0.6 10081299
14:00+15ese4467100 1.4 1008924
17:00+15ese4465100 0.4 10071132
20:00+12ene3681100 0.8 1007119